KMOD

Modesto City - County Airport

Airport
ICAO code
KMOD
IATA Code
MOD
Summary
ICAO Region
NAM
ICAO Territory
Location

Modesto, California

Serving
Modesto
Elevation
97 ft
Coordinates
37° 37' 33" N , 120° 57' 11" W
KCC
Airport LOS
Parallel Runway Operation
Metar
KMOD 142353Z 30016KT 10SM CLR 34/05 A2990 RMK AO2 SLP123 T03440050 10350 20250 57016

Modesto City-County Airport, also known as Harry Sham Field, is located 3 km southeast of the central business district of Modesto, a city in Stanislaus County, California.

Climatology

Dry-summer subtropical ”Mediterranean" climate (Köppen climate classification Csb) - characterized by warm, dry summers and mild winters. During the summer, rising hot air in California's interior valleys creates a low pressure area that draws winds from the North Pacific High.

Runways

Designator Length Width Surface Rops
10R/28L 1054 30 ASP Yes/Yes
10L/28R 1802 46 ASP Yes/Yes

Airport map

Aerial View

SKYbrary Partners:

Safety knowledge contributed by: